TimeEST,TemperatureF,Dew PointF,Humidity,Sea Level PressureIn,VisibilityMPH,Wind Direction,Wind SpeedMPH,Gust SpeedMPH,PrecipitationIn,Events,Conditions,WindDirDegrees,DateUTC
12:09 AM,53.6,51.8,94,30.20,0.2,Calm,Calm,-,N/A,Fog,Fog,0,2011-11-08 05:09:00
12:46 AM,51.8,50.0,94,30.19,0.5,Calm,Calm,-,N/A,Fog,Fog,0,2011-11-08 05:46:00
12:53 AM,52.0,51.1,97,30.20,0.5,Calm,Calm,-,N/A,Fog,Fog,0,2011-11-08 05:53:00
1:08 AM,53.6,51.8,94,30.19,0.2,Calm,Calm,-,0.01,Fog-Rain,Rain,0,2011-11-08 06:08:00
1:25 AM,53.6,51.8,94,30.17,0.5,NE,3.5,-,0.05,Fog-Rain,Light Rain,50,2011-11-08 06:25:00
1:53 AM,52.0,50.0,93,30.17,0.5,Calm,Calm,-,0.07,Fog-Rain,Light Rain,0,2011-11-08 06:53:00
2:53 AM,52.0,50.0,93,30.16,0.5,ENE,5.8,-,0.09,Fog-Rain,Rain,60,2011-11-08 07:53:00
3:53 AM,52.0,50.0,93,30.14,0.5,NE,3.5,-,0.02,Fog-Rain,Light Rain,50,2011-11-08 08:53:00
4:53 AM,53.1,51.1,93,30.14,0.8,East,4.6,-,0.03,Rain,Light Rain,80,2011-11-08 09:53:00
5:34 AM,53.6,51.8,94,30.12,1.0,East,3.5,-,0.03,Rain,Light Rain,80,2011-11-08 10:34:00
5:41 AM,53.6,51.8,94,30.12,0.8,Calm,Calm,-,0.04,Rain,Light Rain,0,2011-11-08 10:41:00
5:48 AM,53.6,51.8,94,30.12,1.0,Calm,Calm,-,0.05,Rain,Light Rain,0,2011-11-08 10:48:00
5:53 AM,53.1,51.1,93,30.13,1.0,Calm,Calm,-,0.05,Rain,Light Rain,0,2011-11-08 10:53:00
6:53 AM,53.1,51.1,93,30.12,2.0,NE,4.6,-,0.05,,Overcast,40,2011-11-08 11:53:00
7:53 AM,51.1,48.9,92,30.12,2.0,Calm,Calm,-,0.00,,Overcast,0,2011-11-08 12:53:00
8:11 AM,51.8,48.2,88,30.10,1.5,ENE,6.9,-,N/A,,Overcast,60,2011-11-08 13:11:00
8:53 AM,51.1,48.9,92,30.11,1.0,Calm,Calm,-,N/A,,Overcast,0,2011-11-08 13:53:00
9:53 AM,54.0,51.1,90,30.09,1.2,East,3.5,-,N/A,,Overcast,80,2011-11-08 14:53:00
10:14 AM,53.6,51.8,94,30.08,1.2,Calm,Calm,-,N/A,,Overcast,0,2011-11-08 15:14:00
10:19 AM,53.6,51.8,94,30.08,1.2,Calm,Calm,-,N/A,,Overcast,0,2011-11-08 15:19:00
10:34 AM,55.4,51.8,88,30.08,1.2,Calm,Calm,-,N/A,,Overcast,0,2011-11-08 15:34:00
10:41 AM,55.4,53.6,94,30.08,1.2,East,3.5,-,N/A,,Overcast,90,2011-11-08 15:41:00
10:51 AM,55.4,53.6,94,30.08,2.5,ESE,4.6,-,N/A,,Overcast,120,2011-11-08 15:51:00
10:53 AM,55.9,53.1,90,30.09,2.5,ESE,3.5,-,N/A,,Overcast,120,2011-11-08 15:53:00
11:50 AM,60.8,55.4,82,30.05,3.0,South,6.9,-,N/A,,Haze,170,2011-11-08 16:50:00
11:53 AM,62.1,54.0,75,30.05,4.0,South,8.1,-,N/A,,Haze,180,2011-11-08 16:53:00
12:53 PM,62.1,52.0,70,30.01,7.0,South,9.2,-,N/A,,Overcast,180,2011-11-08 17:53:00
1:53 PM,62.1,51.1,67,29.96,6.0,SSE,9.2,-,0.00,Rain,Light Rain,150,2011-11-08 18:53:00
2:53 PM,62.1,50.0,65,29.96,8.0,South,13.8,18.4,0.00,,Overcast,180,2011-11-08 19:53:00
3:53 PM,62.1,51.1,67,29.97,6.0,SSW,8.1,-,N/A,,Haze,200,2011-11-08 20:53:00
4:53 PM,61.0,51.1,70,29.97,7.0,South,3.5,-,N/A,,Overcast,170,2011-11-08 21:53:00
5:53 PM,62.1,52.0,70,29.97,8.0,South,8.1,-,0.00,Rain,Light Rain,180,2011-11-08 22:53:00
6:53 PM,59.0,54.0,83,29.99,5.0,Calm,Calm,-,0.01,Rain,Light Rain,0,2011-11-08 23:53:00
7:40 PM,57.2,53.6,88,29.98,2.5,Calm,Calm,-,0.00,Rain,Light Rain,0,2011-11-09 00:40:00
7:51 PM,57.2,53.6,88,29.98,1.5,Calm,Calm,-,0.01,Rain,Light Rain,0,2011-11-09 00:51:00
7:53 PM,57.0,54.0,89,29.99,1.5,Calm,Calm,-,0.01,Rain,Light Rain,0,2011-11-09 00:53:00
8:05 PM,57.2,55.4,94,29.97,2.5,Calm,Calm,-,0.00,Rain,Light Rain,0,2011-11-09 01:05:00
8:17 PM,57.2,53.6,88,29.97,4.0,Calm,Calm,-,0.00,,Overcast,0,2011-11-09 01:17:00
8:28 PM,57.2,55.4,94,29.97,1.8,Calm,Calm,-,0.00,Rain,Light Rain,0,2011-11-09 01:28:00
8:53 PM,57.9,55.0,90,29.97,2.0,SW,5.8,-,0.02,Rain,Light Rain,230,2011-11-09 01:53:00
9:03 PM,57.2,55.4,94,29.97,3.0,SW,6.9,-,0.00,Rain,Light Rain,220,2011-11-09 02:03:00
9:17 PM,57.2,55.4,94,29.97,2.0,SSW,6.9,-,0.00,Rain,Light Rain,210,2011-11-09 02:17:00
9:53 PM,57.9,55.9,93,29.97,2.0,South,4.6,-,0.00,Rain,Light Rain,170,2011-11-09 02:53:00
10:12 PM,57.2,55.4,94,29.96,3.0,South,5.8,-,0.00,,Overcast,180,2011-11-09 03:12:00
10:29 PM,57.2,55.4,94,29.97,2.5,South,5.8,-,0.00,,Overcast,180,2011-11-09 03:29:00
10:43 PM,57.2,55.4,94,29.97,1.2,SSW,3.5,-,0.01,Rain,Light Rain,210,2011-11-09 03:43:00
10:53 PM,57.9,55.0,90,29.97,1.0,SSW,3.5,-,0.02,Rain,Light Rain,210,2011-11-09 03:53:00
11:36 PM,57.2,55.4,94,29.95,1.2,SSE,3.5,-,0.03,Rain,Light Rain,160,2011-11-09 04:36:00
11:53 PM,57.2,55.4,94,29.95,1.0,SSE,3.5,-,N/A,Rain,Light Rain,150,2011-11-09 04:53:00